Regional Weather Roundup
Issued by NWS Mt. Holly, NJ

Current Version | Previous Version | Text Only | Print | Product List | Glossary Off
Versions: 1 2 3 4 5 6 7 8 9 10 11 12 13 14 15 16 17 18 19 20 21 22 23 24 25 26 27 28 29 30 31 32 33 34 35 36 37 38 39 40 41 42 43 44 45 46 47 48 49 50

000
ASUS41 KPHI 040712
RWRPHI

REGIONAL WEATHER ROUNDUP
NATIONAL WEATHER SERVICE MOUNT HOLLY NJ
300 AM EDT FRI SEP 04 2015

NOTE:  "FAIR" INDICATES FEW OR NO CLOUDS BELOW 12,000 FEET WITH NO
SIGNIFICANT WEATHER AND/OR OBSTRUCTIONS TO VISIBILITY.

 * = STATION DOES NOT REPORT PRECIPITATION (E.G. RAIN, SNOW, ETC.)
        OR FOG.

NJZ015>026-040800-
SOUTHERN NEW JERSEY

CITY           SKY/WX    TMP DP  RH WIND       PRES   REMARKS
POMONA         PTCLDY    69  67  93 CALM      29.89F FOG
WILDWOOD*      PTCLDY    72  70  94 CALM      29.90S
MILLVILLE      MOCLDY    70  67  90 CALM      29.89S FOG
WRIGHTSTOWN    MOCLDY    69  69  99 NE2       29.88S
MOUNT HOLLY    MOCLDY    70  67  90 CALM      29.90S FOG
TRENTON        MOCLDY    73  67  81 CALM      29.90F

$$
NJZ001>014-040800-
NORTHERN NEW JERSEY

CITY           SKY/WX    TMP DP  RH WIND       PRES   REMARKS
SUSSEX         PTCLDY    68  65  90 CALM      29.96S
ANDOVER*         N/A     70  68  93 CALM      29.96S
MORRISTOWN     PTCLDY    66  63  88 CALM      29.93S FOG
NEWARK         MOCLDY    79  66  64 N10       29.91S
TETERBORO      PTCLDY    77  65  66 N6        29.90S
CALDWELL       PTCLDY    75  66  73 NE3       29.93S
SOMERVILLE     MOCLDY    73  68  84 N3        29.90S
ALLAIRE*       PTCLDY    73  63  68 N5        29.91S
TOMS RIVER*    PTCLDY    66  61  82 CALM      29.91S

$$
PAZ043-044-047-054-055-060>062-066>071-040800-
EASTERN PENNSYLVANIA

CITY           SKY/WX    TMP DP  RH WIND       PRES   REMARKS
PHILADELPHIA   CLOUDY    78  70  76 CALM      29.90S
NORTH PHILA    MOCLDY    77  67  71 N3        29.92R
BLUE BELL      PTCLDY    72  70  94 CALM      29.91R
DOYLESTOWN     PTCLDY    71  67  87 NE3       29.92S
QUAKERTOWN*    PTCLDY    72  68  88 N3        29.94S
POTTSTOWN      PTCLDY    70  68  93 CALM      29.94S
LANCASTER      PTCLDY    73  66  78 CALM      29.93R
COATESVILLE    MOCLDY    73  68  83 N3        29.94S
READING        PTCLDY    71  67  87 NW3       29.92S
ALLENTOWN      PTCLDY    71  66  84 CALM      29.94S
MOUNT POCONO   CLEAR     65  63  93 CALM      30.02S FOG
HAZLETON       FOG       63  63 100 CALM      30.04S VSB 1/4
WILKES BARRE   CLEAR     69  65  86 E6        29.98S

$$
DEZALL-MDZ008-012-015-019-020-040800-
DELAWARE AND EASTERN MARYLAND

CITY           SKY/WX    TMP DP  RH WIND       PRES   REMARKS
WILMINGTON     MOCLDY    73  68  84 N6        29.91R
DOVER          PTCLDY    73  73 100 VRB2      29.87S FOG
GEORGETOWN     PTCLDY    72  69  90 CALM      29.89S FOG
PATUXENT       PTCLDY    70  68  93 NW3       29.89R
OCEAN CITY     PTCLDY    72  69  90 CALM      29.88S
WALLOPS ISLAND CLEAR     74  74 100 W5        29.89S FOG
CAMBRIDGE      PTCLDY    72  68  88 CALM      29.88S
SALISBURY      PTCLDY    70  70 100 CALM      29.88F FOG

$$
PAZ001-021-NYZ056-072-MDZ011-DCZ001-040800-
OTHER NEARBY LOCATIONS

CITY           SKY/WX    TMP DP  RH WIND       PRES   REMARKS
HARRISBURG     MOCLDY    76  68  76 N3        29.92S
STATE COLLEGE  PTCLDY    66  64  95 CALM      30.00S
WILLIAMSPORT   CLEAR     69  66  90 SW3       29.96F
BINGHAMTON     FOG       67  67 100 NE6       30.02S VSB 1/4
NEW YORK CITY  PTCLDY    80  65  59 VRB3      29.94S
BALTIMORE      MOCLDY    72  69  90 CALM      29.90R
WASHINGTON DC  PTCLDY    78  69  73 NW6       29.91S

$$


USA.gov is the U.S. government's official web portal to all federal, state and local government web resources and services.